Location: *
(47.6569°N, 7.4256°E)
Time: 19:20:43
(UTC+00:00)

Cosmos 2278 Rocket - Pass Details

Date: 14 December 2019
Orbit: 843 x 844 km, 71.0° (Epoch: 25 January)

Event Time Altitude Azimuth Distance (km) Brightness Sun altitude
Rises 16:06:22 0° 330° (NNW) 3,411 5.4 -4.8°
Reaches altitude 10° 16:08:51 10° 328° (NNW) 2,472 4.7 -5.1°
Maximum altitude 16:14:27 65° 248° (WSW) 925 2.8 -6.0°
Drops below altitude 10° 16:20:01 10° 167° (SSE) 2,455 4.8 -6.8°
Sets 16:22:28 0° 165° (SSE) 3,386 5.5 -7.2°
